Location: Catstown
(52.4386°N, 7.2633°W)
Time: 12:45:15
(UTC+00:00)

ERS-1 Rocket - Pass Details

Date: 18 September 2020
Orbit: 753 x 757 km, 98.5° (Epoch: 25 October)

Event Time Altitude Azimuth Distance (km) Brightness Sun altitude
Exits shadow 22:37:24 40° 289° (WNW) 1,108 4.0 -31.8°
Drops below altitude 10° 22:41:22 10° 334° (NNW) 2,297 6.3 -32.1°
Sets 22:43:47 0° 341° (NNW) 3,227 7.3 -32.3°
